Regional Weather Roundup
Issued by NWS

Home | Current Version | Previous Version | Text Only | Print | Product List | Glossary On
Versions: 1 2 3 4 5 6 7 8 9 10 11 12 13 14 15 16 17 18 19 20 21 22 23 24 25 26 27 28 29 30 31 32 33 34 35 36 37 38 39 40 41 42 43 44 45 46 47 48 49 50
000
ASUS44 KLIX 131610
RWRLA
LOUISIANA WEATHER ROUNDUP
NATIONAL WEATHER SERVICE NEW ORLEANS LA
1100 AM CDT SUN JUL 13 2014

NOTE: "FAIR" INDICATES FEW OR NO CLOUDS BELOW 12,000 FEET WITH NO
      SIGNIFICANT WEATHER AND/OR OBSTRUCTIONS TO VISIBILITY.
      SKY/WX - SKY CONDITION AND SIGNIFICANT WEATHER.
      TMP - AIR TEMPERATURE.    DP   - DEWPOINT TEMPERATURE.
      RH  - RELATIVE HUMIDITY.  PRES - PRESSURE.
      HX  - HEAT INDEX.         WCI  - WIND CHILL INDEX.

*  THESE STATIONS ARE NOT NWS OR FAA STATIONS AND ARE NOT UNDER
   NWS QUALITY CONTROL.

LAZ040-048-061>063-065-066-069-131700-
SOUTHEAST LOUISIANA

CITY           SKY/WX    TMP DP  RH WIND       PRES   REMARKS
N.O. AUDUBON     N/A     76  75  96 MISG        N/A
N.O. INTL ARPT TSTM      79  70  74 S9        30.13R
N.O. LAKEFRONT PTSUNNY   82  73  74 S8        30.14R
N.O. DOWNTOWN* CLOUDY    75  70  83 S5        30.14S
SLIDELL        CLOUDY    84  77  79 SE5       30.12R
BATON ROUGE    MOSUNNY   87  75  67 CALM      30.10S HX  96
BOOTHVILLE     CLOUDY    77  74  90 W5        30.13R
BELLE CHASSE   CLOUDY    81  73  76 SE8       30.14R
BOGALUSA*      FAIR      89  74  59 CALM      30.13R HX  98
GALLIANO*      NOT AVBL
NEW ROADS*     FAIR      87  76  71 NW3       30.10S HX  97
GONZALES*      FAIR      85  78  77 SE3       30.10S HX  96
HAMMOND*       MOSUNNY   90  73  58 CALM      30.12S HX  98
HOUMA*         PTSUNNY   82  73  74 S6        30.12S
PORT FOURCHON* SUNNY     81  72  74 W3        30.14R

$$

LAZ041-044-053-054-131700-
SOUTHWEST LOUISIANA

CITY           SKY/WX    TMP DP  RH WIND       PRES   REMARKS
LAKE CHARLES   SUNNY     87  73  62 VRB3      30.11R
LAFAYETTE      PTSUNNY   86  73  65 CALM      30.11R
PATTERSON      CLOUDY    82  79  89 SE5       30.15S
SALT POINT       N/A     86  76  71 CALM      30.11R HX  96
NEW IBERIA     CLOUDY    84  75  74 CALM      30.12R
CHENAULT AIRPK SUNNY     86  73  66 N5        30.12R

$$

LAZ027-028-131700-
CENTRAL LOUISIANA

CITY           SKY/WX    TMP DP  RH WIND       PRES   REMARKS
FORT POLK      SUNNY     88  74  63 CALM      30.10S HX  96
ALEXANDRIA INT SUNNY     91  71  51 VRB3      30.08F HX  97
ALEXANDRIA     SUNNY     91  72  53 E7        30.10S HX  98

$$

LAZ001-002-131700-
NORTHWEST LOUISIANA

CITY           SKY/WX    TMP DP  RH WIND       PRES   REMARKS
SHREVEPORT     SUNNY     92  73  53 N7        30.09S HX 100
BARKSDALE AFB  SUNNY     92  72  50 N6        30.09S HX 100
DTN SHREVEPORT SUNNY     92  73  53 N3        30.09S HX 100

$$

LAZ014-016-131700-
NORTHEAST LOUISIANA

CITY           SKY/WX    TMP DP  RH WIND       PRES   REMARKS
MONROE         SUNNY     89  74  60 CALM      30.11S HX  98
TALLULAH       SUNNY     87  75  67 CALM      30.11S HX  96

$$



USA.gov is the U.S. government's official web portal to all federal, state and local government web resources and services.